Regional Weather Roundup
Issued by NWS Albany, NY

Home | Current Version | Previous Version | Text Only | Print | Product List | Glossary On
Versions: 1 2 3 4 5 6 7 8 9 10 11 12 13 14 15 16 17 18 19 20 21 22 23 24 25 26 27 28 29 30 31 32 33 34 35 36 37 38 39 40 41 42 43 44 45 46 47
000
ASUS41 KALY 280610
RWRALY

NEW YORK STATE HOURLY WEATHER ROUNDUP
NATIONAL WEATHER SERVICE ALBANY NY
200 AM EDT FRI AUG 28 2015

NOTE: "FAIR" INDICATES FEW OR NO CLOUDS BELOW 12,000 FEET WITH NO
SIGNIFICANT WEATHER AND/OR NO OBSTRUCTIONS TO VISIBILITY.

NYZ032-033-038>043-046>054-057>066-NYZ062>081-280700-
EAST


CITY           SKY/WX    TMP DP  RH WIND       PRES   REMARKS
ALBANY         FAIR      60  53  77 W3        30.13F
GLENS FALLS    FAIR      54  51  90 CALM      30.12S
POUGHKEEPSIE   FAIR      57  54  89 CALM      30.13S
MONTGOMERY     FAIR      54  53  97 SW3       30.15S
WHITE PLAINS   FAIR      61  54  77 N7        30.12F
ISLIP          FAIR      63  55  75 N3        30.10F
NEW YORK CITY  FAIR      70  54  56 N6        30.12S
CENTRAL PARK   FAIR      68  53  58 NW5       30.16S
$$

NYZ005>009-017-018-044>046-055-056-280700-
CENTRAL


CITY           SKY/WX    TMP DP  RH WIND       PRES   REMARKS
FULTON         CLOUDY    59  55  87 S5        30.16S
SYRACUSE       FAIR      54  53  97 S3        30.16S
ROME           FAIR      53  51  93 CALM      30.18S
ELMIRA         FAIR      49  49 100 W3        30.18F
BINGHAMTON     FAIR      57  53  86 CALM      30.18F
MONTICELLO     FAIR      54  52  94 W5        30.19S
$$

NYZ026>034-041>043-280700-
NORTH


CITY           SKY/WX    TMP DP  RH WIND       PRES   REMARKS
WATERTOWN      CLOUDY    56  54  93 E3        30.14F
FORT DRUM      NOT AVBL
MASSENA        FAIR      54  52  93 CALM      30.15S FOG
SARANAC LAKE   CLOUDY    52  51  97 CALM      30.15S
PLATTSBURGH    FAIR      60  54  80 W5        30.11S
$$

NYZ001>004-010>016-019>021-280700-
WEST


CITY           SKY/WX    TMP DP  RH WIND       PRES   REMARKS
NIAGARA FALLS  FAIR      55  51  86 CALM      30.17S
BUFFALO        FAIR      56  53  90 SE3       30.17F
DUNKIRK        CLOUDY    61  56  83 S6        30.17F
JAMESTOWN        N/A     52  48  87 S3        30.20S VSB 1/4
WELLSVILLE     FOG       50  48  93 CALM      30.22F VSB 1/4
ROCHESTER      FAIR      54  51  90 SW3       30.18S
PENN YAN       FAIR      55  53  93 S3        30.19S
$$

             KEY
       WCI = WIND CHILL INDEX
       VSB = VISIBILITY
       HX  = HEAT INDEX
$$


USA.gov is the U.S. government's official web portal to all federal, state and local government web resources and services.